Location: Haulchin
(50.3172°N, 3.4360°E)
Time: 14:11:58
(UTC+00:00)

Cosmos 1674 Rocket - Pass Details

Date: 23 May 2024
Orbit: 598 x 627 km, 82.5° (Epoch: 18 June)

Event Time Altitude Azimuth Distance (km) Brightness Sun altitude
Exits shadow 02:52:34 - 187° (S) 2,555 6.2 -7.6°
Reaches altitude 10° 02:53:57 10° 187° (S) 2,000 5.7 -7.5°
Maximum altitude 02:58:23 86° 99° (E) 635 3.7 -7.0°
Drops below altitude 10° 03:02:51 10° 11° (N) 2,007 7.1 -6.5°
Sets 03:05:05 0° 11° (N) 2,915 8.0 -6.2°
